Preview of NWS' New Version of Forecast
This preview is not operational and should not be used for support decisions.

Regional Weather Roundup (RWR)

Issued by National Weather Service (NWS)

                            
000
ASCA42 TJSJ 170910
RWRPR 
PUERTO RICO/U.S. VIRGIN ISLANDS HOURLY WEATHER ROUNDUP
NATIONAL WEATHER SERVICE SAN JUAN PR
500 AM AST SUN MAR 17 2019

PRZ001>002-007>008-010-171000-
PUERTO RICO
  
CITY           SKY/WX    TMP DP  RH WIND       PRES   REMARKS
SAN JUAN LMM   PTCLDY    72  66  83 CALM      30.00S                  
$$

VIZ001>002-171000-
U.S. VIRGIN ISLANDS
  
CITY           SKY/WX    TMP DP  RH WIND       PRES   REMARKS
CHARLOTTE AMA  CLOUDY    75  66  73 E6        29.99R                  
CHRISTIANSTED  CLEAR     70  64  83 N5        30.00R                  
$$

HOURLY WEATHER ROUNDUP FOR THE NEWS MEDIA
  
CITY           SKY/WX    TMP DP  RH WIND       PRES   REMARKS
ORLANDO        CLOUDY    64  52  64 N8        30.08F                  
NEW YORK       FAIR      35  14  42 NW14      30.16S WCI  26          
NEWARK         FAIR      34  11  38 W6        30.16R WCI  29          
CHICAGO        CLOUDY    30  25  81 CALM      30.22F                  
HARTFORD       FAIR      31  21  66 W9        30.06R WCI  23          
BOSTON         FAIR      35  12  38 W17G25    30.03R WCI  25          
DALLAS         PTCLDY    44  33  65 CALM      30.33F                  
PHILADELPHIA   FAIR      33  13  43 W8        30.21R WCI  26          
LOS ANGELES    CLEAR     61  41  47 NE3       30.01F                  
WASHINGTON DC  FAIR      30  20  66 NE3       30.23R